Fernandina Beach, FL

4:49 AM EST on December 07, 2019 (GMT -0500)
Fernandina Beach

Weather History for KFHB - October, 2019

Change the Weather History Date:

Friday, October 25, 2019

  Actual Average (KNRB) Record (KNRB)
Temperature  
Mean Temperature 78 °F -  
Max Temperature 82 °F 75 °F 87 °F (2001)
Min Temperature 74 °F 62 °F 45 °F (2005)
Cooling Degree Days 13    
Growing Degree Days 28 (Base 50)    
Moisture  
Dew Point 72 °F    
Average Humidity 83    
Maximum Humidity 94    
Minimum Humidity 73    
Precipitation  
Precipitation 0.00 in - - ()
Sea Level Pressure  
Sea Level Pressure 30.12 in    
Wind  
Wind Speed 9 mph (East)    
Max Wind Speed 14 mph    
Max Gust Speed 17 mph    
Visibility 10 miles    
Events      
Averages and records for this station are not official NWS values.
T = Trace of Precipitation, MM = Missing Value Source: NWS Daily Summary

Daily Weather History Graph

Daily Weather History Graph

Search for Another Location

Airport or City:

Astronomy

Oct. 25, 2019 Rise Set
Actual Time 7:35 AM EDT 6:44 PM EDT
Civil Twilight 7:10 AM EDT 7:08 PM EDT
Nautical Twilight 6:42 AM EDT 7:37 PM EDT
Astronomical Twilight 6:14 AM EDT 8:05 PM EDT
Moon 4:35 AM EDT (10/25) 5:29 PM EDT (10/25)
Length of Visible Light 11h 58m
Length of Day
11h 09m
Waning Crescent, 9% of the Moon is Illuminated
Oct 25
Waning Crescent
Oct 27
New
Nov 4
First Quarter
Nov 12
Full
Nov 19
Last Quarter

Hourly Weather History & Observations

Time (EDT) Temp. Heat Index Dew Point Humidity Pressure Visibility Wind Dir Wind Speed Gust Speed Precip Events Conditions
12:15 AM 75.0 °F - 71.4 °F 89% 30.17 in 10.0 mi East 6.9 mph - N/A   Scattered Clouds
12:35 AM 74.8 °F - 71.2 °F 88% 30.16 in 10.0 mi East 6.9 mph - N/A   Clear
12:55 AM 75.0 °F - 71.4 °F 89% 30.16 in 10.0 mi East 6.9 mph - N/A   Clear
1:15 AM 75.2 °F - 71.8 °F 89% 30.16 in 10.0 mi East 5.8 mph - N/A   Clear
1:35 AM 74.1 °F - 71.6 °F 92% 30.15 in 10.0 mi East 5.8 mph - N/A   Clear
1:55 AM 74.7 °F - 72.1 °F 92% 30.15 in 10.0 mi East 5.8 mph - N/A   Clear
2:15 AM 74.1 °F - 72.1 °F 94% 30.14 in 10.0 mi East 5.8 mph - N/A   Scattered Clouds
2:35 AM 74.1 °F - 72.3 °F 94% 30.14 in 10.0 mi East 5.8 mph - N/A   Mostly Cloudy
2:55 AM 75.0 °F - 72.7 °F 92% 30.13 in 10.0 mi East 5.8 mph - N/A   Mostly Cloudy
3:15 AM 75.4 °F - 72.5 °F 91% 30.12 in 10.0 mi East 5.8 mph - N/A   Scattered Clouds
3:35 AM 75.7 °F - 73.0 °F 91% 30.12 in 10.0 mi ESE 6.9 mph - N/A   Scattered Clouds
4:15 AM 76.1 °F - 72.9 °F 90% 30.12 in 10.0 mi ESE 9.2 mph - N/A   Clear
4:30 AM 76.1 °F - 73.0 °F 90% 30.12 in 10.0 mi ESE 8.1 mph - N/A   Clear
4:55 AM 76.1 °F - 73.2 °F 91% 30.12 in 10.0 mi East 9.2 mph - N/A   Clear
5:15 AM 75.9 °F - 73.2 °F 91% 30.12 in 10.0 mi ESE 9.2 mph - N/A   Clear
5:35 AM 76.1 °F - 72.9 °F 90% 30.12 in 10.0 mi East 8.1 mph - N/A   Clear
5:55 AM 76.1 °F - 72.9 °F 90% 30.12 in 10.0 mi East 8.1 mph - N/A   Clear
6:15 AM 75.9 °F - 72.9 °F 90% 30.12 in 10.0 mi East 8.1 mph - N/A   Clear
6:35 AM 75.9 °F - 72.7 °F 90% 30.12 in 10.0 mi East 6.9 mph - N/A   Clear
6:55 AM 75.9 °F - 72.7 °F 90% 30.12 in 10.0 mi East 8.1 mph - N/A   Clear
7:15 AM 75.9 °F - 72.5 °F 89% 30.12 in 10.0 mi East 8.1 mph - N/A   Clear
7:35 AM 76.1 °F - 72.5 °F 89% 30.12 in 10.0 mi ESE 6.9 mph - N/A   Clear
8:15 AM 77.0 °F - 73.0 °F 88% 30.13 in 10.0 mi East 9.2 mph - N/A   Clear
8:35 AM 77.9 °F - 73.4 °F 86% 30.13 in 10.0 mi ESE 9.2 mph - N/A   Clear
8:55 AM 78.6 °F - 73.4 °F 84% 30.14 in 10.0 mi ESE 9.2 mph - N/A   Clear
9:15 AM 79.0 °F - 73.4 °F 83% 30.14 in 10.0 mi ESE 9.2 mph - N/A   Clear
9:35 AM 79.7 °F - 74.1 °F 83% 30.15 in 10.0 mi East 9.2 mph - N/A   Clear
9:55 AM 80.1 °F 84.5 °F 73.8 °F 81% 30.16 in 10.0 mi ESE 10.4 mph - N/A   Scattered Clouds
10:15 AM 80.4 °F 84.7 °F 72.7 °F 77% 30.16 in 10.0 mi East 11.5 mph - N/A   Clear
10:35 AM 81.1 °F 85.8 °F 72.7 °F 75% 30.16 in 10.0 mi East 11.5 mph - N/A   Clear
10:55 AM 82.2 °F 87.8 °F 73.0 °F 74% 30.16 in 10.0 mi ESE 11.5 mph 17.3 mph N/A   Clear
11:15 AM 81.7 °F 86.5 °F 72.3 °F 73% 30.17 in 10.0 mi ESE 11.5 mph - N/A   Clear
11:35 AM 82.8 °F 88.7 °F 73.2 °F 73% 30.16 in 10.0 mi ESE 11.5 mph 17.3 mph N/A   Clear
11:55 AM 81.7 °F 86.9 °F 73.0 °F 75% 30.16 in 10.0 mi East 13.8 mph - N/A   Scattered Clouds
12:15 PM 81.5 °F 86.7 °F 73.2 °F 76% 30.16 in 10.0 mi East 10.4 mph - N/A   Overcast
12:35 PM 81.5 °F 86.5 °F 72.9 °F 75% 30.15 in 10.0 mi ESE 11.5 mph - N/A   Overcast
12:55 PM 81.5 °F 86.7 °F 73.2 °F 76% 30.14 in 10.0 mi ESE 11.5 mph - N/A   Mostly Cloudy
1:15 PM 82.6 °F 88.6 °F 73.6 °F 74% 30.14 in 10.0 mi East 11.5 mph - N/A   Scattered Clouds
1:35 PM 81.7 °F 87.3 °F 73.9 °F 77% 30.12 in 10.0 mi East 10.4 mph - N/A   Mostly Cloudy
1:55 PM 82.9 °F 89.9 °F 74.8 °F 76% 30.11 in 10.0 mi East 11.5 mph - N/A   Overcast
2:15 PM 81.3 °F 86.5 °F 73.6 °F 77% 30.10 in 10.0 mi East 11.5 mph - N/A   Overcast
2:35 PM 81.9 °F 87.0 °F 73.0 °F 74% 30.09 in 10.0 mi East 12.7 mph - N/A   Mostly Cloudy
2:55 PM 81.5 °F 86.7 °F 73.4 °F 76% 30.09 in 10.0 mi East 11.5 mph - N/A   Mostly Cloudy
3:35 PM 80.8 °F 85.4 °F 72.9 °F 77% 30.09 in 10.0 mi East 12.7 mph - N/A   Mostly Cloudy
4:15 PM 81.0 °F 85.4 °F 72.5 °F 75% 30.07 in 10.0 mi East 12.7 mph - N/A   Scattered Clouds
4:35 PM 80.4 °F 84.7 °F 72.5 °F 77% 30.07 in 10.0 mi ESE 12.7 mph - N/A   Clear
4:55 PM 80.6 °F 84.9 °F 72.5 °F 76% 30.07 in 10.0 mi ESE 12.7 mph - N/A   Clear
5:15 PM 80.1 °F 84.0 °F 72.1 °F 77% 30.07 in 10.0 mi ESE 11.5 mph 17.3 mph N/A   Clear
5:35 PM 79.5 °F - 72.1 °F 78% 30.07 in 10.0 mi ESE 11.5 mph - N/A   Clear
5:55 PM 79.0 °F - 71.8 °F 78% 30.06 in 10.0 mi East 12.7 mph - N/A   Clear
6:15 PM 78.3 °F - 72.0 °F 81% 30.06 in 10.0 mi East 9.2 mph - N/A   Clear
6:35 PM 77.2 °F - 72.1 °F 84% 30.07 in 10.0 mi East 9.2 mph - N/A   Clear
6:55 PM 77.0 °F - 71.6 °F 83% 30.07 in 10.0 mi East 10.4 mph - N/A   Clear
7:15 PM 76.8 °F - 71.8 °F 84% 30.07 in 10.0 mi East 8.1 mph - N/A   Clear
7:35 PM 76.5 °F - 72.0 °F 86% 30.08 in 10.0 mi East 9.2 mph - N/A   Clear
7:55 PM 76.5 °F - 72.0 °F 86% 30.08 in 10.0 mi East 9.2 mph - N/A   Clear
8:15 PM 76.6 °F - 72.1 °F 86% 30.08 in 10.0 mi East 9.2 mph - N/A   Clear
8:35 PM 77.0 °F - 72.0 °F 84% 30.09 in 10.0 mi East 10.4 mph - N/A   Scattered Clouds
8:55 PM 77.4 °F - 71.2 °F 81% 30.09 in 10.0 mi East 10.4 mph - N/A   Mostly Cloudy
9:15 PM 77.0 °F - 71.6 °F 83% 30.09 in 10.0 mi East 9.2 mph - N/A   Scattered Clouds
9:35 PM 77.0 °F - 71.6 °F 83% 30.09 in 10.0 mi East 11.5 mph - N/A   Scattered Clouds
9:55 PM 76.8 °F - 71.6 °F 84% 30.09 in 10.0 mi East 9.2 mph - N/A   Scattered Clouds
10:15 PM 77.0 °F - 71.2 °F 82% 30.09 in 10.0 mi ESE 11.5 mph - N/A   Clear
10:35 PM 77.2 °F - 71.4 °F 82% 30.09 in 10.0 mi ESE 9.2 mph 16.1 mph N/A   Scattered Clouds
10:55 PM 77.0 °F - 71.8 °F 84% 30.09 in 10.0 mi ESE 10.4 mph - N/A   Clear
11:15 PM 77.0 °F - 71.8 °F 84% 30.09 in 10.0 mi ESE 11.5 mph - N/A   Clear
11:35 PM 77.0 °F - 71.1 °F 82% 30.09 in 10.0 mi ESE 11.5 mph - N/A   Scattered Clouds
11:55 PM 76.8 °F - 71.4 °F 83% 30.09 in 10.0 mi ESE 10.4 mph - N/A   Scattered Clouds